• In Hungary
  • List of Countries
  • For 7 days
  • Water Temperature
  • Satellite Maps
  • Weather Map
  • News
  • Weather Widgets
  • user-avatar
    Login

    Hourly Weather Zarzecze

    Today, 18 July, Wednesday

    Time Temperature Precipitation Wind Pressure Humidity
    00:00 +19°C° 0 mm 1 mps 738 mmHg 95%
    01:00 +19°C° 0 mm 1 mps 738 mmHg 97%
    02:00 +18°C° 0 mm 2 mps 738 mmHg 97%
    03:00 +18°C° 0 mm 2 mps 738 mmHg 98%
    04:00 +18°C° 0 mm 2 mps 738 mmHg 98%
    05:00 +19°C° 0 mm 2 mps 738 mmHg 96%
    06:00 +20°C° 0 mm 2 mps 738 mmHg 94%
    07:00 +21°C° 0 mm 3 mps 738 mmHg 91%
    08:00 +22°C° 0 mm 3 mps 738 mmHg 87%
    09:00 +24°C° 0 mm 3 mps 738 mmHg 83%
    10:00 +25°C° 0 mm 3 mps 738 mmHg 78%
    11:00 +26°C° 0.6 mm 3 mps 738 mmHg 76%
    12:00 +27°C° 0.6 mm 3 mps 739 mmHg 74%
    13:00 +27°C° 0.6 mm 3 mps 739 mmHg 72%
    14:00 +28°C° 1.2 mm 3 mps 739 mmHg 73%
    15:00 +28°C° 1.2 mm 3 mps 739 mmHg 74%
    16:00 +28°C° 1.2 mm 3 mps 739 mmHg 74%
    17:00 +27°C° 0.7 mm 3 mps 739 mmHg 78%
    18:00 +26°C° 0.7 mm 3 mps 739 mmHg 82%
    19:00 +25°C° 0.7 mm 3 mps 739 mmHg 86%
    20:00 +24°C° 0.3 mm 3 mps 740 mmHg 89%
    21:00 +22°C° 0.3 mm 3 mps 740 mmHg 92%
    22:00 +21°C° 0.3 mm 3 mps 740 mmHg 94%
    23:00 +21°C° 0.2 mm 3 mps 740 mmHg 95%

    Tomorrow, 19 July, Thursday

    Time Temperature Precipitation Wind Pressure Humidity
    00:00 +21°C° 0.2 mm 3 mps 741 mmHg 96%
    01:00 +21°C° 0.2 mm 3 mps 741 mmHg 97%
    02:00 +20°C° 0.8 mm 3 mps 741 mmHg 97%
    03:00 +20°C° 0.8 mm 3 mps 741 mmHg 97%
    04:00 +20°C° 0.8 mm 3 mps 741 mmHg 98%
    05:00 +21°C° 1 mm 3 mps 741 mmHg 95%
    06:00 +21°C° 1 mm 3 mps 742 mmHg 93%
    07:00 +22°C° 1 mm 3 mps 742 mmHg 91%
    08:00 +24°C° 0.7 mm 3 mps 742 mmHg 85%
    09:00 +25°C° 0.7 mm 4 mps 742 mmHg 78%
    10:00 +26°C° 0.7 mm 4 mps 742 mmHg 72%
    11:00 +27°C° 0.4 mm 4 mps 742 mmHg 68%
    12:00 +28°C° 0.4 mm 4 mps 742 mmHg 63%
    13:00 +28°C° 0.4 mm 4 mps 742 mmHg 59%
    14:00 +28°C° 0.2 mm 4 mps 742 mmHg 58%
    15:00 +28°C° 0.2 mm 5 mps 742 mmHg 57%
    16:00 +28°C° 0.2 mm 5 mps 742 mmHg 56%
    17:00 +27°C° 0 mm 4 mps 742 mmHg 62%
    18:00 +26°C° 0 mm 4 mps 742 mmHg 68%
    19:00 +23°C° 0 mm 4 mps 742 mmHg 73%
    20:00 +22°C° 0 mm 4 mps 742 mmHg 77%
    21:00 +21°C° 0 mm 3 mps 743 mmHg 81%
    22:00 +20°C° 0 mm 3 mps 743 mmHg 84%
    23:00 +20°C° 0 mm 3 mps 743 mmHg 86%

    Day after tomorrow, 20 July, Friday

    Time Temperature Precipitation Wind Pressure Humidity
    00:00 +19°C° 0 mm 3 mps 743 mmHg 88%
    01:00 +19°C° 0 mm 3 mps 743 mmHg 90%
    02:00 +18°C° 0 mm 4 mps 743 mmHg 92%
    03:00 +18°C° 0 mm 4 mps 743 mmHg 93%
    04:00 +18°C° 0 mm 4 mps 743 mmHg 94%
    05:00 +19°C° 0 mm 4 mps 743 mmHg 90%
    06:00 +20°C° 0 mm 4 mps 744 mmHg 86%
    07:00 +21°C° 0 mm 5 mps 744 mmHg 81%
    08:00 +22°C° 0.2 mm 5 mps 744 mmHg 77%
    09:00 +23°C° 0.2 mm 5 mps 744 mmHg 73%
    10:00 +25°C° 0.2 mm 5 mps 744 mmHg 69%
    11:00 +26°C° 0.2 mm 5 mps 744 mmHg 64%
    12:00 +27°C° 0.2 mm 6 mps 744 mmHg 59%
    13:00 +28°C° 0.2 mm 6 mps 743 mmHg 54%
    14:00 +28°C° 0.1 mm 6 mps 743 mmHg 55%
    15:00 +28°C° 0.1 mm 6 mps 743 mmHg 56%
    16:00 +28°C° 0.1 mm 6 mps 743 mmHg 57%
    17:00 +26°C° 0.1 mm 5 mps 743 mmHg 63%
    18:00 +25°C° 0.1 mm 4 mps 743 mmHg 69%
    19:00 +23°C° 0.1 mm 4 mps 743 mmHg 74%
    20:00 +22°C° 0 mm 3 mps 743 mmHg 78%
    21:00 +20°C° 0 mm 3 mps 744 mmHg 81%
    22:00 +19°C° 0 mm 3 mps 744 mmHg 85%
    23:00 +19°C° 0 mm 3 mps 744 mmHg 88%

    21 July, Saturday

    Time Temperature Precipitation Wind Pressure Humidity
    00:00 +18°C° 0 mm 3 mps 744 mmHg 90%
    01:00 +18°C° 0 mm 3 mps 744 mmHg 93%
    02:00 +17°C° 0 mm 3 mps 744 mmHg 94%
    03:00 +17°C° 0 mm 2 mps 744 mmHg 95%
    04:00 +16°C° 0 mm 2 mps 744 mmHg 96%
    05:00 +18°C° 0 mm 2 mps 744 mmHg 90%
    06:00 +19°C° 0 mm 3 mps 744 mmHg 83%
    07:00 +20°C° 0 mm 3 mps 744 mmHg 77%
    08:00 +22°C° 0 mm 3 mps 744 mmHg 69%
    09:00 +24°C° 0 mm 3 mps 744 mmHg 62%
    10:00 +25°C° 0 mm 3 mps 744 mmHg 55%
    11:00 +26°C° 0 mm 3 mps 744 mmHg 53%
    12:00 +26°C° 0 mm 3 mps 744 mmHg 51%
    13:00 +27°C° 0 mm 4 mps 743 mmHg 48%
    14:00 +27°C° 0 mm 3 mps 743 mmHg 49%
    15:00 +27°C° 0 mm 3 mps 743 mmHg 49%
    16:00 +27°C° 0 mm 3 mps 743 mmHg 50%
    17:00 +25°C° 0 mm 3 mps 743 mmHg 55%
    18:00 +24°C° 0 mm 2 mps 743 mmHg 61%
    19:00 +21°C° 0 mm 2 mps 743 mmHg 66%
    20:00 +21°C° 0 mm 1 mps 743 mmHg 68%
    21:00 +20°C° 0 mm 1 mps 743 mmHg 69%
    22:00 +19°C° 0 mm 1 mps 743 mmHg 70%
    23:00 +19°C° 0 mm 1 mps 743 mmHg 71%

    22 July, Sunday

    Time Temperature Precipitation Wind Pressure Humidity
    00:00 +18°C° 0 mm 1 mps 743 mmHg 72%
    01:00 +16°C° 0 mm 0 mps 742 mmHg 72%
    02:00 +15°C° 0 mm 0 mps 742 mmHg 73%
    03:00 +15°C° 0 mm 0 mps 742 mmHg 74%
    04:00 +15°C° 0 mm 0 mps 742 mmHg 75%
    05:00 +19°C° 0 mm 1 mps 742 mmHg 71%
    06:00 +20°C° 0 mm 1 mps 742 mmHg 67%
    07:00 +22°C° 0 mm 1 mps 742 mmHg 62%
    08:00 +23°C° 0 mm 1 mps 742 mmHg 59%
    09:00 +25°C° 0 mm 2 mps 742 mmHg 55%
    10:00 +26°C° 0 mm 2 mps 742 mmHg 51%
    11:00 +27°C° 0 mm 2 mps 742 mmHg 49%
    12:00 +27°C° 0 mm 2 mps 742 mmHg 47%
    13:00 +28°C° 0 mm 2 mps 741 mmHg 45%
    14:00 +28°C° 0 mm 2 mps 741 mmHg 46%
    15:00 +28°C° 0 mm 3 mps 741 mmHg 47%
    16:00 +28°C° 0 mm 3 mps 741 mmHg 48%
    17:00 +26°C° 0 mm 2 mps 741 mmHg 54%
    18:00 +25°C° 0 mm 2 mps 742 mmHg 61%
    19:00 +24°C° 0 mm 2 mps 742 mmHg 68%
    20:00 +23°C° 0 mm 2 mps 742 mmHg 69%
    21:00 +21°C° 0 mm 2 mps 743 mmHg 70%
    22:00 +20°C° 0 mm 2 mps 743 mmHg 71%
    23:00 +20°C° 0 mm 2 mps 743 mmHg 73%

    23 July, Monday

    Time Temperature Precipitation Wind Pressure Humidity
    00:00 +19°C° 0 mm 2 mps 743 mmHg 75%
    01:00 +19°C° 0 mm 2 mps 743 mmHg 77%
    02:00 +18°C° 0 mm 2 mps 743 mmHg 81%
    03:00 +18°C° 0 mm 2 mps 744 mmHg 85%
    04:00 +17°C° 0 mm 2 mps 744 mmHg 89%
    05:00 +18°C° 0 mm 3 mps 744 mmHg 87%
    06:00 +19°C° 0 mm 3 mps 745 mmHg 85%
    07:00 +20°C° 0 mm 3 mps 745 mmHg 82%
    08:00 +22°C° 0.1 mm 3 mps 745 mmHg 76%
    09:00 +23°C° 0.1 mm 4 mps 745 mmHg 71%
    10:00 +25°C° 0.1 mm 4 mps 745 mmHg 65%
    11:00 +26°C° 0.1 mm 4 mps 745 mmHg 62%
    12:00 +27°C° 0.1 mm 5 mps 745 mmHg 59%
    13:00 +28°C° 0.1 mm 5 mps 745 mmHg 56%
    14:00 +28°C° 0.1 mm 5 mps 745 mmHg 56%
    15:00 +27°C° 0.1 mm 5 mps 745 mmHg 56%
    16:00 +27°C° 0.1 mm 5 mps 745 mmHg 56%
    17:00 +26°C° 0.1 mm 4 mps 745 mmHg 62%
    18:00 +25°C° 0.1 mm 3 mps 745 mmHg 67%
    19:00 +24°C° 0.1 mm 3 mps 745 mmHg 72%
    20:00 +21°C° 0 mm 3 mps 745 mmHg 76%
    21:00 +20°C° 0 mm 3 mps 746 mmHg 79%
    22:00 +19°C° 0 mm 3 mps 746 mmHg 82%
    23:00 +19°C° 0 mm 3 mps 746 mmHg 86%
    Show more